Regional Weather Roundup
Issued by NWS

Home | Current Version | Previous Version | Text Only | Print | Product List | Glossary Off
Versions: 1 2 3 4 5 6 7 8 9 10 11 12 13 14 15 16 17 18 19 20 21 22 23 24 25 26 27 28 29 30 31 32 33 34 35 36 37 38 39 40 41 42 43 44 45 46 47 48 49 50

954
ASUS43 KDMX 230603
RWRIA

WEATHER ROUNDUP FOR IOWA
NATIONAL WEATHER SERVICE DES MOINES IA
100 AM CDT SAT JUL 23 2016

NOTE: "FAIR" INDICATES FEW OR NO CLOUDS BELOW 12,000 FEET WITH NO
SIGNIFICANT WEATHER AND/OR OBSTRUCTIONS TO VISIBILITY.

* - THESE STATIONS ARE NOT NWS STATIONS...THUS NOT UNDER NWS
QUALITY CONTROL.  THEY ALSO DO NOT REPORT WEATHER SUCH
AS PRECIPITATION OR FOG.

IAZ001>003-012>014-020>022-031>034-043>046-230700-
   NORTHWEST IOWA

CITY           SKY/WX    TMP DP  RH WIND       PRES   REMARKS
CARROLL *      MOCLDY    81  79  94 SE5       29.95F HX  89
CHEROKEE *     PTCLDY    80  79  96 CALM      29.93F HX  89
DENISON *      CLOUDY    81  77  89 SE7       29.92F HX  88
LE MARS *      CLOUDY    82  79  89 SE6       29.91F HX  93
SHELDON *      PTCLDY    79  79 100 SE6       29.93F HX  83
SPENCER        CLOUDY    80  77  90 SE7       29.95S HX  87
6HR MIN TEMP:  80; 6HR MAX TEMP:  87;

STORM LAKE *   CLOUDY    79  79 100 SE6       29.96F HX  83
$$

IAZ055>058-069>071-079>083-090>094-230700-
   SOUTHWEST IOWA

CITY           SKY/WX    TMP DP  RH WIND       PRES   REMARKS
ATLANTIC *     MOCLDY    81  77  89 S5        29.94F HX  88
CLARINDA *       N/A     84  79  84 MISG      29.96S HX  96
COUNCIL BLFS * CLOUDY    81  79  94 S7        29.92F HX  89
CRESTON *      CLEAR     79  77  94 SE7       29.99R HX  83
HARLAN  *      CLOUDY    81  79  94 SE8       29.97F HX  89
LAMONI         PTCLDY    79  77  94 S6        29.98R HX  83
6HR MIN TEMP:  79; 6HR MAX TEMP:  85; 6HR PCP: TRACE;

RED OAK *      MOCLDY    82  79  89 S8        29.93F HX  93
SHENANDOAH *   CLOUDY    82  79  89 S10       29.93F HX  93
$$

IAZ047>049-059>061-072>074-084-230700-
   CENTRAL IOWA

CITY           SKY/WX    TMP DP  RH WIND       PRES   REMARKS
AMES           CLEAR     78  78 100 S6        29.98R HX  81
6HR MIN TEMP:  78; 6HR MAX TEMP:  89;

ANKENY *         N/A    N/A N/A N/A MISG        N/A
BOONE *          N/A     79  77  94 SE7       29.98R HX  83
CHARITON *       N/A    N/A N/A N/A MISG        N/A
DES MOINES     PTCLDY    82  77  84 SE6       29.97R HX  90
6HR MIN TEMP:  82; 6HR MAX TEMP:  90;

GRINNELL*      CLEAR     76  74  92 E5        30.00S
KNOXVILLE *    PTCLDY    79  75  89 SE5       29.97R HX  82
MARSHALLTOWN   CLEAR     77  76  96 SE7       29.97F
6HR MIN TEMP:  77; 6HR MAX TEMP:  86;

NEWTON *       CLEAR     77  77 100 SE3       29.98S
PELLA *        CLEAR     77  75  92 SE3       29.99S
PERRY *          N/A     79  78  97 E5        29.97S HX  83
$$

IAZ004>006-015-016-023>025-035-036-230700-
   NORTH CENTRAL IOWA

CITY           SKY/WX    TMP DP  RH WIND       PRES   REMARKS
ALGONA *       CLOUDY    81  79  94 SE8       29.96S HX  89
ESTHERVILLE    PTCLDY    78  77  96 E5        29.96R HX  81
6HR MIN TEMP:  78; 6HR MAX TEMP:  85;

FORT DODGE *   CLOUDY    81  79  94 SE5       29.98R HX  89
MASON CITY     CLOUDY    77  76  96 SE6       29.98F
6HR MIN TEMP:  77; 6HR MAX TEMP:  86;

FOREST CITY *    N/A     77  77 100 E3        29.98R
IOWA FALLS *     N/A     79  76  88 SE6       29.99S HX  84
$$

IAZ007>011-017>019-026>030-037>042-050>054-066-230700-
   NORTHEAST IOWA

CITY           SKY/WX    TMP DP  RH WIND       PRES   REMARKS
CEDAR RAPIDS   CLEAR     77  77 100 SE5       29.98F
6HR MIN TEMP:  77; 6HR MAX TEMP:  85;

CHARLES CITY * MOCLDY    77  77 100 E6        29.99F
CLINTON *      MOCLDY    76  75  97 E3        30.00F
DECORAH *      PTCLDY    77  77 100 CALM      29.99F
DUBUQUE        PTCLDY    77  75  93 CALM      30.01S
6HR MIN TEMP:  76; 6HR MAX TEMP:  83;

MONTICELLO *   PTCLDY    77  75  94 CALM      29.99F
OELWEIN *      PTCLDY    75  75 100 SE7       30.00F FOG
WATERLOO       CLOUDY    80  76  87 S8        29.96F HX  86
6HR MIN TEMP:  76; 6HR MAX TEMP:  87;

$$

IAZ064-065-067-068-078-230700-
   EAST CENTRAL IOWA

CITY           SKY/WX    TMP DP  RH WIND       PRES   REMARKS
DAVENPORT      PTCLDY    75  73  93 CALM      30.00F
6HR MIN TEMP:  75; 6HR MAX TEMP:  85; 6HR PCP: TRACE;

IOWA CITY      PTCLDY    79  77  94 CALM      30.00S HX  83
6HR MIN TEMP:  78; 6HR MAX TEMP:  86;

MT. PLEASANT * CLEAR     78  78 100 E3        29.99F HX  80
MUSCATINE *    CLEAR     77  75  94 CALM      29.98F
QUAD CITIES    PTCLDY    78  75  90 SE6       29.98F HX  81
6HR MIN TEMP:  78; 6HR MAX TEMP:  87;

$$

IAZ062-063-075>077-085>089-095>099-230700-
   SOUTHEAST IOWA

CITY           SKY/WX    TMP DP  RH WIND       PRES   REMARKS
BURLINGTON     CLEAR     77  76  96 CALM      29.99S
6HR MIN TEMP:  77; 6HR MAX TEMP:  85;

FAIRFIELD *    CLEAR     79  75  89 S3        29.99R HX  82
KEOKUK *       CLEAR     79  77  94 S6        29.98S HX  83
CENTERVILLE *    N/A     77  75  94 CALM      30.00S
OTTUMWA        CLEAR     78  74  87 S6        29.98R HX  81
6HR MIN TEMP:  76; 6HR MAX TEMP:  86;

WASHINGTON *   MOCLDY    77  75  94 CALM      30.00F
$$

ABBREVIATIONS USED IN REMARKS
   TC - TEMPERATURES IN CELSIUS
  WCI - WIND CHILL INDEX
   HX - HEAT INDEX
  VSB - VISIBILITY
$$





USA.gov is the U.S. government's official web portal to all federal, state and local government web resources and services.